Greenville, AL

10:25 AM CDT on April 24, 2017 (GMT -0500)
Greenville Municipal

Weather History for KPRN - January, 2014

Change the Weather History Date:

Thursday, January 30, 2014

  Actual Average Record
Temperature  
Mean Temperature 30 °F -  
Max Temperature 46 °F 60 °F 79 °F (1950)
Min Temperature 14 °F 39 °F 5 °F (1966)
Degree Days  
Heating Degree Days 35    
Moisture  
Dew Point 14 °F    
Average Humidity 57    
Maximum Humidity 89    
Minimum Humidity 26    
Precipitation  
Precipitation 0.00 in - - ()
Sea Level Pressure  
Sea Level Pressure 30.25 in    
Wind  
Wind Speed 5 mph (ENE)    
Max Wind Speed 10 mph    
Max Gust Speed -    
Visibility 10 miles    
Events      
Averages and records for this station are not official NWS values.
T = Trace of Precipitation, MM = Missing Value Source: NWS Daily Summary

Daily Weather History Graph

Daily Weather History Graph

Search for Another Location

Airport or City:

Trip Planner

Search our weather history database for the weather conditions in past years. The results will help you decide how hot, cold, wet, or windy it might be!

Date:

Astronomy

Jan. 30, 2014 Rise Set
Actual Time 6:40 AM CST 5:18 PM CST
Civil Twilight 6:15 AM CST 5:44 PM CST
Nautical Twilight 5:46 AM CST 6:13 PM CST
Astronomical Twilight 5:17 AM CST 6:42 PM CST
Moon 6:08 AM CST (1/30) 5:26 PM CST (1/30)
Length of Visible Light 11h 29m
Length of Day
10h 37m
Waning Crescent, 0% of the Moon is Illuminated
Jan 30
Waning Crescent
Jan 30
New
Feb 6
First Quarter
Feb 14
Full
Feb 22
Last Quarter

Hourly Weather History & Observations

Time (CST) Temp. Windchill Dew Point Humidity Pressure Visibility Wind Dir Wind Speed Gust Speed Precip Events Conditions
12:56 AM 15.1 °F 7.7 °F 10.0 °F 80% 30.33 in 10.0 mi North 4.6 mph - N/A   Clear
1:56 AM 14.0 °F 6.5 °F 9.0 °F 80% 30.31 in 10.0 mi NNE 4.6 mph - N/A   Clear
2:56 AM 17.1 °F 8.7 °F 7.0 °F 65% 30.30 in 10.0 mi NNE 5.8 mph - N/A   Clear
3:56 AM 16.0 °F 7.4 °F 6.1 °F 65% 30.31 in 10.0 mi North 5.8 mph - N/A   Clear
4:56 AM 17.1 °F 8.7 °F 5.0 °F 59% 30.32 in 10.0 mi North 5.8 mph - N/A   Clear
5:56 AM 17.1 °F 10.0 °F 5.0 °F 59% 30.33 in 10.0 mi NNE 4.6 mph - N/A   Clear
6:56 AM 16.0 °F - 6.1 °F 65% 30.33 in 10.0 mi Calm Calm - N/A   Clear
7:56 AM 23.0 °F 14.7 °F 7.0 °F 50% 30.33 in 10.0 mi East 6.9 mph - N/A   Clear
8:56 AM 28.9 °F 19.8 °F 12.0 °F 49% 30.32 in 10.0 mi East 10.4 mph - N/A   Clear
9:56 AM 32.0 °F 24.8 °F 16.0 °F 52% 30.31 in 10.0 mi ESE 8.1 mph - N/A   Clear
11:56 AM 39.9 °F 36.7 °F 14.0 °F 35% 30.27 in 10.0 mi Variable 4.6 mph - N/A   Clear
12:56 PM 43.0 °F 40.3 °F 14.0 °F 31% 30.24 in 10.0 mi Variable 4.6 mph - N/A   Clear
1:56 PM 46.0 °F 43.1 °F 15.1 °F 29% 30.19 in 10.0 mi Variable 5.8 mph - N/A   Clear
2:56 PM 46.0 °F 43.9 °F 12.9 °F 26% 30.19 in 10.0 mi Variable 4.6 mph - N/A   Clear
3:56 PM 46.9 °F - 16.0 °F 29% 30.20 in 10.0 mi Calm Calm - N/A   Clear
4:56 PM 42.1 °F 37.7 °F 17.1 °F 37% 30.16 in 10.0 mi ESE 6.9 mph - N/A   Clear
5:56 PM 39.0 °F 35.7 °F 17.1 °F 41% 30.18 in 10.0 mi SSE 4.6 mph - N/A   Clear
6:56 PM 36.0 °F 33.3 °F 21.9 °F 57% 30.19 in 10.0 mi SSE 3.5 mph - N/A   Clear
7:56 PM 33.1 °F 27.7 °F 24.1 °F 70% 30.17 in 10.0 mi SE 5.8 mph - N/A   Clear
8:56 PM 32.0 °F - 25.0 °F 75% 30.18 in 10.0 mi Calm Calm - N/A   Clear
9:56 PM 28.0 °F - 24.1 °F 85% 30.21 in 10.0 mi Calm Calm - N/A   Clear
10:56 PM 27.0 °F - 23.0 °F 85% 30.19 in 10.0 mi Calm Calm - N/A   Clear
11:56 PM 27.0 °F 20.5 °F 24.1 °F 89% 30.18 in 7.0 mi ESE 5.8 mph - N/A   Clear